Year,Month,Day,Hour,Minute,Value (Times are PST for temperature in C)
2014,06,25,07,24,14.80
2014,06,25,07,25,14.90
2014,06,25,07,26,14.90
2014,06,25,07,27,15.00
2014,06,25,07,28,15.00
2014,06,25,07,29,15.10
2014,06,25,07,30,15.10
2014,06,25,07,31,15.20
2014,06,25,07,32,15.20
2014,06,25,07,33,15.30
2014,06,25,07,34,15.30
2014,06,25,07,35,15.30
2014,06,25,07,36,15.50
2014,06,25,07,37,15.60
2014,06,25,07,38,15.70
2014,06,25,07,39,15.80
2014,06,25,07,40,15.80
2014,06,25,07,41,15.90
2014,06,25,07,42,16.10
2014,06,25,07,43,16.10
2014,06,25,07,44,16.20
2014,06,25,07,45,16.30
2014,06,25,07,46,16.40
2014,06,25,07,47,16.40
2014,06,25,07,48,16.40
2014,06,25,07,49,16.60
2014,06,25,07,50,16.60
2014,06,25,07,51,16.70
2014,06,25,07,52,16.70
2014,06,25,07,53,16.70
2014,06,25,07,54,16.70
2014,06,25,07,55,16.80
2014,06,25,07,56,16.90
2014,06,25,07,57,16.90
2014,06,25,07,58,16.90
2014,06,25,07,59,16.90
2014,06,25,08,00,16.90
2014,06,25,08,01,16.90
2014,06,25,08,02,16.90
2014,06,25,08,03,16.90
2014,06,25,08,04,16.90
2014,06,25,08,05,16.90
2014,06,25,08,06,16.90
2014,06,25,08,07,16.90
2014,06,25,08,08,16.90
2014,06,25,08,09,16.90
2014,06,25,08,10,16.90
2014,06,25,08,11,16.90
2014,06,25,08,12,16.90
2014,06,25,08,13,17.00
2014,06,25,08,14,17.00
2014,06,25,08,15,17.00
2014,06,25,08,16,17.00
2014,06,25,08,17,17.10
2014,06,25,08,18,17.10
2014,06,25,08,19,17.10
2014,06,25,08,20,17.10
2014,06,25,08,21,17.20
2014,06,25,08,22,17.20
2014,06,25,08,23,17.20
2014,06,25,08,24,17.20
2014,06,25,08,25,17.30
2014,06,25,08,26,17.30
2014,06,25,08,27,17.30
2014,06,25,08,28,17.30
2014,06,25,08,29,17.30
2014,06,25,08,30,17.30
2014,06,25,08,31,17.30
2014,06,25,08,32,17.40
2014,06,25,08,33,17.50
2014,06,25,08,34,17.60
2014,06,25,08,35,17.60
2014,06,25,08,36,17.70
2014,06,25,08,37,17.80
2014,06,25,08,38,17.90
2014,06,25,08,39,17.90
2014,06,25,08,40,17.90
2014,06,25,08,41,17.90
2014,06,25,08,42,17.90
2014,06,25,08,43,17.90
2014,06,25,08,44,17.90
2014,06,25,08,45,17.90
2014,06,25,08,46,18.10
2014,06,25,08,47,18.10
2014,06,25,08,48,17.90
2014,06,25,08,49,17.90
2014,06,25,08,50,17.90
2014,06,25,08,51,17.90
2014,06,25,08,52,17.90
2014,06,25,08,53,17.90
2014,06,25,08,54,18.10
2014,06,25,08,55,18.10
2014,06,25,08,56,18.10
2014,06,25,08,57,18.20
2014,06,25,08,58,18.20
2014,06,25,08,59,18.30
2014,06,25,09,00,18.30
2014,06,25,09,01,18.40
2014,06,25,09,02,18.60
2014,06,25,09,03,18.70
2014,06,25,09,04,18.80
2014,06,25,09,05,18.90
2014,06,25,09,06,18.90
2014,06,25,09,07,19.10
2014,06,25,09,08,19.10
2014,06,25,09,09,19.20
2014,06,25,09,10,19.30
2014,06,25,09,11,19.30
2014,06,25,09,12,19.30
2014,06,25,09,13,19.30
2014,06,25,09,14,19.20
2014,06,25,09,15,19.10
2014,06,25,09,16,19.10
2014,06,25,09,17,19.10
2014,06,25,09,18,19.10
2014,06,25,09,19,19.10
2014,06,25,09,20,19.20
2014,06,25,09,21,19.30
2014,06,25,09,22,19.30
2014,06,25,09,23,19.30
2014,06,25,09,24,19.30
2014,06,25,09,25,19.40
2014,06,25,09,26,19.30
2014,06,25,09,27,19.30
2014,06,25,09,28,19.30
2014,06,25,09,29,19.30
2014,06,25,09,30,19.30
2014,06,25,09,31,19.30
2014,06,25,09,32,19.30
2014,06,25,09,33,19.30
2014,06,25,09,34,19.30
2014,06,25,09,35,19.30
2014,06,25,09,36,19.40
2014,06,25,09,37,19.40
2014,06,25,09,38,19.50
2014,06,25,09,39,19.50
2014,06,25,09,40,19.50
2014,06,25,09,41,19.50
2014,06,25,09,42,19.50
2014,06,25,09,43,19.50
2014,06,25,09,44,19.50
2014,06,25,09,45,19.50
2014,06,25,09,46,19.60
2014,06,25,09,47,19.60
2014,06,25,09,48,19.60
2014,06,25,09,49,19.70
2014,06,25,09,50,19.70
2014,06,25,09,51,19.70
2014,06,25,09,52,19.80
2014,06,25,09,53,19.80
2014,06,25,09,54,19.90
2014,06,25,09,55,19.90
2014,06,25,09,56,20.10
2014,06,25,09,57,20.10
2014,06,25,09,58,20.20
2014,06,25,09,59,20.20
2014,06,25,10,00,20.20
2014,06,25,10,01,20.30
2014,06,25,10,02,20.40
2014,06,25,10,03,20.40
2014,06,25,10,04,20.40
2014,06,25,10,05,20.40
2014,06,25,10,06,20.40
2014,06,25,10,07,20.50
2014,06,25,10,08,20.50
2014,06,25,10,09,20.60
2014,06,25,10,10,20.60
2014,06,25,10,11,20.60
2014,06,25,10,12,20.60
2014,06,25,10,13,20.50
2014,06,25,10,14,20.50
2014,06,25,10,15,20.50
2014,06,25,10,16,20.50
2014,06,25,10,17,20.50
2014,06,25,10,18,20.50
2014,06,25,10,19,20.50
2014,06,25,10,20,20.50
2014,06,25,10,21,20.50
2014,06,25,10,22,20.40
2014,06,25,10,23,20.40
2014,06,25,10,24,20.40
2014,06,25,10,25,20.40
2014,06,25,10,26,20.50
2014,06,25,10,27,20.60
2014,06,25,10,28,20.60
2014,06,25,10,29,20.80
2014,06,25,10,30,20.90
2014,06,25,10,31,21.00
2014,06,25,10,32,21.00
2014,06,25,10,33,21.20
2014,06,25,10,34,21.20
2014,06,25,10,35,21.30
2014,06,25,10,36,21.30
2014,06,25,10,37,21.30
2014,06,25,10,38,21.30
2014,06,25,10,39,21.30
2014,06,25,10,40,21.30
2014,06,25,10,41,21.40
2014,06,25,10,42,21.60
2014,06,25,10,43,21.60
2014,06,25,10,44,21.60
2014,06,25,10,45,21.60
2014,06,25,10,46,21.60
2014,06,25,10,47,21.60
2014,06,25,10,48,21.60
2014,06,25,10,49,21.60
2014,06,25,10,50,21.60
2014,06,25,10,51,21.70
2014,06,25,10,52,21.70
2014,06,25,10,53,21.70
2014,06,25,10,54,21.60
2014,06,25,10,55,21.60
2014,06,25,10,56,21.70
2014,06,25,10,57,21.70
2014,06,25,10,58,21.70
2014,06,25,10,59,21.70
2014,06,25,11,00,21.80
2014,06,25,11,01,21.90
2014,06,25,11,02,22.00
2014,06,25,11,03,22.10
2014,06,25,11,04,22.20
2014,06,25,11,05,22.20
2014,06,25,11,06,22.20
2014,06,25,11,07,22.20
2014,06,25,11,08,22.10
2014,06,25,11,09,22.10
2014,06,25,11,10,22.10
2014,06,25,11,11,22.10
2014,06,25,11,12,22.10
2014,06,25,11,13,22.20
2014,06,25,11,14,22.20
2014,06,25,11,15,22.30
2014,06,25,11,16,22.30
2014,06,25,11,17,22.30
2014,06,25,11,18,22.40
2014,06,25,11,19,22.40
2014,06,25,11,20,22.50
2014,06,25,11,21,22.50
2014,06,25,11,22,22.50
2014,06,25,11,23,22.50
2014,06,25,11,24,22.60
2014,06,25,11,25,22.70
2014,06,25,11,26,22.80
2014,06,25,11,27,22.90
2014,06,25,11,28,22.90
2014,06,25,11,29,22.90
2014,06,25,11,30,23.10
2014,06,25,11,31,23.20
2014,06,25,11,32,23.30
2014,06,25,11,33,23.30
2014,06,25,11,34,23.30
2014,06,25,11,35,23.40
2014,06,25,11,36,23.60
2014,06,25,11,37,23.70
2014,06,25,11,38,23.70
2014,06,25,11,39,23.80
2014,06,25,11,40,23.70
2014,06,25,11,41,23.70
2014,06,25,11,42,23.70
2014,06,25,11,43,23.70
2014,06,25,11,44,23.60
2014,06,25,11,45,23.60
2014,06,25,11,46,23.70
2014,06,25,11,47,23.60
2014,06,25,11,48,23.60
2014,06,25,11,49,23.60
2014,06,25,11,50,23.40
2014,06,25,11,51,23.40
2014,06,25,11,52,23.40
2014,06,25,11,53,23.40
2014,06,25,11,54,23.60
2014,06,25,11,55,23.70
2014,06,25,11,56,23.80
2014,06,25,11,57,23.90
2014,06,25,11,58,23.90
2014,06,25,11,59,23.90
2014,06,25,12,01,23.90
2014,06,25,12,02,23.90
2014,06,25,12,03,23.90
2014,06,25,12,04,23.90
2014,06,25,12,05,23.90
2014,06,25,12,06,24.10
2014,06,25,12,07,24.10
2014,06,25,12,08,24.10
2014,06,25,12,09,24.10
2014,06,25,12,10,24.10
2014,06,25,12,11,24.10
2014,06,25,12,12,24.20
2014,06,25,12,13,24.30
2014,06,25,12,14,24.30
2014,06,25,12,15,24.40
2014,06,25,12,16,24.40
2014,06,25,12,17,24.50
2014,06,25,12,18,24.50
2014,06,25,12,19,24.50
2014,06,25,12,20,24.60
2014,06,25,12,21,24.60
2014,06,25,12,22,24.70
2014,06,25,12,23,24.80
2014,06,25,12,24,24.80
2014,06,25,12,25,24.80
2014,06,25,12,26,24.80
2014,06,25,12,27,24.70
2014,06,25,12,28,24.70
2014,06,25,12,29,24.70
2014,06,25,12,30,24.70
2014,06,25,12,31,24.60
2014,06,25,12,32,24.60
2014,06,25,12,33,24.70
2014,06,25,12,34,24.70
2014,06,25,12,35,24.80
2014,06,25,12,36,24.80
2014,06,25,12,37,24.80
2014,06,25,12,38,24.90
2014,06,25,12,39,25.00
2014,06,25,12,40,25.10
2014,06,25,12,41,25.10
2014,06,25,12,42,25.20
2014,06,25,12,43,25.40
2014,06,25,12,44,25.60
2014,06,25,12,45,25.60
2014,06,25,12,46,25.60
2014,06,25,12,47,25.60
2014,06,25,12,48,25.60
2014,06,25,12,49,25.60
2014,06,25,12,50,25.70
2014,06,25,12,51,25.80
2014,06,25,12,52,25.80
2014,06,25,12,53,25.80
2014,06,25,12,54,25.80
2014,06,25,12,55,25.80
2014,06,25,12,56,25.80
2014,06,25,12,57,25.90
2014,06,25,12,58,25.90
2014,06,25,12,59,25.90
2014,06,25,13,00,25.90
2014,06,25,13,01,25.90
2014,06,25,13,02,25.90
2014,06,25,13,03,25.80
2014,06,25,13,04,25.80
2014,06,25,13,05,25.80
2014,06,25,13,06,25.80
2014,06,25,13,07,25.80
2014,06,25,13,08,25.90
2014,06,25,13,09,25.90
2014,06,25,13,10,26.00
2014,06,25,13,11,26.10
2014,06,25,13,12,26.10
2014,06,25,13,13,26.10
2014,06,25,13,14,26.10
2014,06,25,13,15,26.10
2014,06,25,13,16,26.00
2014,06,25,13,17,26.00
2014,06,25,13,18,26.10
2014,06,25,13,19,26.10
2014,06,25,13,20,26.10
2014,06,25,13,21,26.10
2014,06,25,13,22,26.10
2014,06,25,13,23,26.10
2014,06,25,13,24,26.00
2014,06,25,13,25,26.00
2014,06,25,13,26,26.00
2014,06,25,13,27,25.90
2014,06,25,13,28,26.00
2014,06,25,13,29,26.00
2014,06,25,13,30,26.10
2014,06,25,13,31,26.20
2014,06,25,13,32,26.30
2014,06,25,13,33,26.60
2014,06,25,13,34,26.60
2014,06,25,13,35,26.60
2014,06,25,13,36,26.60
2014,06,25,13,37,26.70
2014,06,25,13,38,26.80
2014,06,25,13,39,26.80
2014,06,25,13,40,26.80
2014,06,25,13,41,26.80
2014,06,25,13,42,26.80
2014,06,25,13,43,26.80
2014,06,25,13,44,26.80
2014,06,25,13,45,26.90
2014,06,25,13,46,27.10
2014,06,25,13,47,27.20
2014,06,25,13,48,27.30
2014,06,25,13,49,27.30
2014,06,25,13,50,27.30
2014,06,25,13,51,27.40
2014,06,25,13,52,27.30
2014,06,25,13,53,27.40
2014,06,25,13,54,27.40
2014,06,25,13,55,27.30
2014,06,25,13,56,27.30
2014,06,25,13,57,27.30
2014,06,25,13,58,27.30
2014,06,25,13,59,27.30
2014,06,25,14,00,27.40
2014,06,25,14,01,27.60
2014,06,25,14,02,27.40
2014,06,25,14,03,27.40
2014,06,25,14,04,27.30
2014,06,25,14,05,27.30
2014,06,25,14,06,27.30
2014,06,25,14,07,27.30
2014,06,25,14,08,27.30
2014,06,25,14,09,27.40
2014,06,25,14,10,27.40
2014,06,25,14,11,27.60
2014,06,25,14,12,27.60
2014,06,25,14,13,27.70
2014,06,25,14,14,27.70
2014,06,25,14,15,27.80
2014,06,25,14,16,27.80
2014,06,25,14,17,27.80
2014,06,25,14,18,27.80
2014,06,25,14,19,27.80
2014,06,25,14,20,27.70
2014,06,25,14,21,27.60
2014,06,25,14,22,27.40
2014,06,25,14,23,27.40
2014,06,25,14,24,27.30
2014,06,25,14,25,27.30
2014,06,25,14,26,27.40
2014,06,25,14,27,27.30
2014,06,25,14,28,27.30
2014,06,25,14,29,27.30
2014,06,25,14,30,27.30
2014,06,25,14,31,27.30
2014,06,25,14,32,27.30
2014,06,25,14,33,27.20
2014,06,25,14,34,27.20
2014,06,25,14,35,27.30
2014,06,25,14,36,27.30
2014,06,25,14,37,27.30
2014,06,25,14,38,27.20
2014,06,25,14,39,27.20
2014,06,25,14,40,27.20
2014,06,25,14,41,27.10
2014,06,25,14,42,26.90
2014,06,25,14,43,27.10
2014,06,25,14,44,27.10
2014,06,25,14,45,27.20
2014,06,25,14,46,27.30
2014,06,25,14,47,27.30
2014,06,25,14,48,27.60
2014,06,25,14,49,27.60
2014,06,25,14,51,27.70
2014,06,25,14,52,27.70
2014,06,25,14,53,27.70
2014,06,25,14,54,27.80
2014,06,25,14,55,27.80
2014,06,25,14,56,27.90
2014,06,25,14,57,27.90
2014,06,25,14,58,27.90
2014,06,25,14,59,27.90
2014,06,25,15,00,27.90
2014,06,25,15,01,27.90
2014,06,25,15,02,27.90
2014,06,25,15,03,27.90
2014,06,25,15,04,28.00
2014,06,25,15,05,28.10
2014,06,25,15,06,28.10
2014,06,25,15,07,28.10
2014,06,25,15,08,28.10
2014,06,25,15,09,28.10
2014,06,25,15,10,28.10
2014,06,25,15,11,28.20
2014,06,25,15,12,28.30
2014,06,25,15,13,28.40
2014,06,25,15,14,28.40
2014,06,25,15,15,28.60
2014,06,25,15,16,28.60
2014,06,25,15,17,28.60
2014,06,25,15,18,28.60
2014,06,25,15,19,28.60
2014,06,25,15,20,28.40
2014,06,25,15,21,28.30
2014,06,25,15,22,28.20
2014,06,25,15,23,28.10
2014,06,25,15,24,28.10
2014,06,25,15,25,28.10
2014,06,25,15,26,28.10
2014,06,25,15,27,28.20
2014,06,25,15,28,28.20
2014,06,25,15,29,28.20
2014,06,25,15,30,28.30
2014,06,25,15,31,28.20
2014,06,25,15,32,28.20
2014,06,25,15,33,28.20
2014,06,25,15,35,28.10
2014,06,25,15,36,28.10
2014,06,25,15,37,28.10
2014,06,25,15,38,28.00
2014,06,25,15,39,27.80
2014,06,25,15,40,27.70
2014,06,25,15,41,27.60
2014,06,25,15,42,27.60
2014,06,25,15,43,27.60
2014,06,25,15,44,27.70
2014,06,25,15,45,27.80
2014,06,25,15,46,27.80
2014,06,25,15,47,27.80
2014,06,25,15,48,27.80
2014,06,25,15,49,27.90
2014,06,25,15,50,27.90
2014,06,25,15,51,27.90
2014,06,25,15,52,27.90
2014,06,25,15,53,27.90
2014,06,25,15,55,28.00
2014,06,25,15,56,28.00
2014,06,25,15,57,28.00
2014,06,25,15,58,27.80
2014,06,25,15,59,27.80
2014,06,25,16,00,27.80
2014,06,25,16,01,27.90
2014,06,25,16,02,27.90
2014,06,25,16,04,28.10
2014,06,25,16,05,28.20
2014,06,25,16,06,28.20
2014,06,25,16,07,28.30
2014,06,25,16,08,28.30
2014,06,25,16,09,28.30
2014,06,25,16,10,28.30
2014,06,25,16,11,28.40
2014,06,25,16,12,28.40
2014,06,25,16,13,28.40
2014,06,25,16,14,28.40
2014,06,25,16,15,28.60
2014,06,25,16,16,28.60
2014,06,25,16,18,28.60
2014,06,25,16,19,28.70
2014,06,25,16,21,28.80
2014,06,25,16,22,28.80
2014,06,25,16,23,28.70
2014,06,25,16,24,28.60
2014,06,25,16,25,28.60
2014,06,25,16,26,28.40
2014,06,25,16,27,28.40
2014,06,25,16,28,28.30
2014,06,25,16,29,28.20
2014,06,25,16,30,28.10
2014,06,25,16,31,28.10
2014,06,25,16,32,28.10
2014,06,25,16,33,28.10
2014,06,25,16,34,28.10
2014,06,25,16,36,28.20
2014,06,25,16,37,28.30
2014,06,25,16,38,28.30
2014,06,25,16,39,28.30
2014,06,25,16,40,28.30
2014,06,25,16,41,28.30
2014,06,25,16,42,28.20
2014,06,25,16,43,28.10
2014,06,25,16,44,28.00
2014,06,25,16,45,28.00
2014,06,25,16,46,28.00
2014,06,25,16,47,27.90
2014,06,25,16,48,27.80
2014,06,25,16,49,27.80
2014,06,25,16,50,27.80
2014,06,25,16,51,27.80
2014,06,25,16,52,27.70
2014,06,25,16,53,27.70
2014,06,25,16,54,27.70
2014,06,25,16,55,27.70
2014,06,25,16,56,27.80
2014,06,25,16,57,27.70
2014,06,25,16,58,27.70
2014,06,25,16,59,27.80
2014,06,25,17,00,27.80
2014,06,25,17,01,27.80
2014,06,25,17,02,27.80
2014,06,25,17,03,27.90
2014,06,25,17,04,28.10
2014,06,25,17,05,28.20
2014,06,25,17,06,28.40
2014,06,25,17,07,28.60
2014,06,25,17,08,28.60
2014,06,25,17,09,28.70
2014,06,25,17,10,28.80
2014,06,25,17,11,28.90
2014,06,25,17,12,28.90
2014,06,25,17,13,28.90
2014,06,25,17,14,28.90
2014,06,25,17,15,28.90
2014,06,25,17,16,28.90
2014,06,25,17,17,28.90
2014,06,25,17,18,28.80
2014,06,25,17,19,28.80
2014,06,25,17,20,28.80
2014,06,25,17,21,28.60
2014,06,25,17,22,28.40
2014,06,25,17,23,28.30
2014,06,25,17,24,28.10
2014,06,25,17,26,28.10
2014,06,25,17,27,28.10
2014,06,25,17,28,28.10
2014,06,25,17,29,28.00
2014,06,25,17,30,28.00
2014,06,25,17,31,27.90
2014,06,25,17,32,27.90
2014,06,25,17,33,27.80
2014,06,25,17,34,27.70
2014,06,25,17,35,27.70
2014,06,25,17,36,27.60
2014,06,25,17,37,27.70
2014,06,25,17,38,27.70
2014,06,25,17,39,27.70
2014,06,25,17,40,27.70
2014,06,25,17,41,27.80
2014,06,25,17,42,27.80
2014,06,25,17,43,27.90
2014,06,25,17,44,28.00
2014,06,25,17,45,28.00
2014,06,25,17,46,28.10
2014,06,25,17,47,28.10
2014,06,25,17,48,28.10
2014,06,25,17,49,28.10
2014,06,25,17,50,28.10
2014,06,25,17,51,28.00
2014,06,25,17,52,28.00
2014,06,25,17,53,28.00
2014,06,25,17,54,27.90
2014,06,25,17,55,28.00
2014,06,25,17,56,27.90
2014,06,25,17,57,27.90
2014,06,25,17,58,28.00
2014,06,25,17,59,28.00
2014,06,25,18,00,28.00
2014,06,25,18,01,28.10
2014,06,25,18,02,28.20
2014,06,25,18,03,28.10
2014,06,25,18,04,28.10
2014,06,25,18,05,28.00
2014,06,25,18,06,27.90
2014,06,25,18,07,27.80
2014,06,25,18,08,27.60
2014,06,25,18,09,27.30
2014,06,25,18,10,27.10
2014,06,25,18,11,26.80
2014,06,25,18,12,26.60
2014,06,25,18,13,26.30
2014,06,25,18,14,26.10
2014,06,25,18,15,25.90
2014,06,25,18,16,25.80
2014,06,25,18,17,25.70
2014,06,25,18,18,25.70
2014,06,25,18,19,25.60
2014,06,25,18,20,25.60
2014,06,25,18,21,25.60
2014,06,25,18,22,25.60
2014,06,25,18,23,25.50
2014,06,25,18,24,25.60
2014,06,25,18,25,25.60
2014,06,25,18,26,25.70
2014,06,25,18,27,25.70
2014,06,25,18,28,25.80
2014,06,25,18,29,25.80
2014,06,25,18,30,25.80
2014,06,25,18,31,25.80
2014,06,25,18,32,25.80
2014,06,25,18,33,25.70
2014,06,25,18,34,25.60
2014,06,25,18,35,25.50
2014,06,25,18,36,25.60
2014,06,25,18,37,25.60
2014,06,25,18,38,25.60
2014,06,25,18,39,25.60
2014,06,25,18,40,25.60
2014,06,25,18,41,25.50
2014,06,25,18,42,25.40
2014,06,25,18,43,25.30
2014,06,25,18,44,25.20
2014,06,25,18,45,25.20
2014,06,25,18,46,25.10
2014,06,25,18,47,25.10
2014,06,25,18,48,25.20
2014,06,25,18,49,25.30
2014,06,25,18,50,25.30
2014,06,25,18,51,25.30
2014,06,25,18,52,25.20
2014,06,25,18,53,25.10
2014,06,25,18,54,25.00
2014,06,25,18,55,25.00
2014,06,25,18,56,25.00
2014,06,25,18,57,25.00
2014,06,25,18,58,25.00
2014,06,25,18,59,25.00
2014,06,25,19,00,25.00
2014,06,25,19,01,25.00
2014,06,25,19,02,25.10
2014,06,25,19,03,25.10
2014,06,25,19,04,25.20
2014,06,25,19,05,25.20
2014,06,25,19,06,25.20
2014,06,25,19,07,25.20
2014,06,25,19,08,25.20
2014,06,25,19,09,25.20
2014,06,25,19,10,25.20
2014,06,25,19,11,25.20
2014,06,25,19,12,25.00
2014,06,25,19,13,24.90
2014,06,25,19,14,24.90
2014,06,25,19,15,24.80
2014,06,25,19,16,24.70
2014,06,25,19,17,24.70
2014,06,25,19,18,24.70
2014,06,25,19,19,24.60
2014,06,25,19,20,24.60
2014,06,25,19,21,24.70
2014,06,25,19,22,24.70
2014,06,25,19,23,24.70
2014,06,25,19,24,24.70
2014,06,25,19,25,24.80
2014,06,25,19,26,24.80
2014,06,25,19,27,24.80
2014,06,25,19,28,24.80
2014,06,25,19,29,24.80
2014,06,25,19,30,24.80
2014,06,25,19,31,24.80
2014,06,25,19,32,24.90
2014,06,25,19,33,24.80
2014,06,25,19,34,24.70
2014,06,25,19,35,24.70
2014,06,25,19,36,24.70
2014,06,25,19,37,24.70
2014,06,25,19,38,24.70
2014,06,25,19,39,24.70
2014,06,25,19,40,24.60
2014,06,25,19,41,24.60
2014,06,25,19,42,24.70
2014,06,25,19,43,24.60
2014,06,25,19,44,24.60
2014,06,25,19,45,24.50
2014,06,25,19,46,24.40
2014,06,25,19,47,24.40
2014,06,25,19,48,24.30
2014,06,25,19,49,24.30
2014,06,25,19,50,24.30
2014,06,25,19,51,24.30
2014,06,25,19,52,24.30
2014,06,25,19,53,24.30
2014,06,25,19,54,24.20
2014,06,25,19,55,24.20
2014,06,25,19,56,24.10
2014,06,25,19,57,24.10
2014,06,25,19,58,23.90
2014,06,25,19,59,23.90
2014,06,25,20,00,23.90
2014,06,25,20,01,23.80
2014,06,25,20,02,23.80
2014,06,25,20,03,23.70
2014,06,25,20,04,23.70
2014,06,25,20,05,23.40
2014,06,25,20,06,23.40
2014,06,25,20,07,23.30
2014,06,25,20,08,23.30
2014,06,25,20,09,23.20
2014,06,25,20,10,23.10
2014,06,25,20,11,23.10
2014,06,25,20,12,22.90
2014,06,25,20,13,22.90
2014,06,25,20,14,22.90
2014,06,25,20,15,22.90
2014,06,25,20,16,22.90
2014,06,25,20,17,22.80
2014,06,25,20,18,22.80
2014,06,25,20,19,22.80
2014,06,25,20,20,22.80
2014,06,25,20,21,22.80
2014,06,25,20,22,22.80
2014,06,25,20,23,22.80
2014,06,25,20,24,22.80
2014,06,25,20,25,22.80
2014,06,25,20,26,22.80
2014,06,25,20,27,22.80
2014,06,25,20,28,22.80
